This is the latest recevied weather packets stored in our database for station/object KO4DYK. If no packets are shown the sender has not sent any weather packets the latest 10 day(s).
| Time | Temp. | Humidity | Pressure | Rain* | Wind** | Luminosity | Snow |
|---|---|---|---|---|---|---|---|
| 1777208895 | 16.67° C | 99% | 1017 hPa | 0 mm | - | 106 W/m² | - |
| 1777208590 | 16.67° C | 99% | 1017.2 hPa | 0 mm | - | 85 W/m² | - |
| 1777208288 | 16.11° C | 99% | 1017.1 hPa | 0 mm | - | 70 W/m² | - |
| 1777207984 | 15.56° C | 99% | 1016.9 hPa | 0 mm | - | 70 W/m² | - |
| 1777207679 | 15.56° C | 99% | 1016.9 hPa | 0 mm | - | 74 W/m² | - |
| 1777207374 | 15.56° C | 99% | 1016.7 hPa | 0 mm | - | 73 W/m² | - |
| 1777207073 | 15.56° C | 99% | 1016.6 hPa | 0 mm | - | 72 W/m² | - |
| 1777206770 | 15° C | 99% | 1016.5 hPa | 0 mm | - | 75 W/m² | - |
| 1777206470 | 15° C | 99% | 1016.5 hPa | 0 mm | - | 76 W/m² | - |
| 1777206165 | 14.44° C | 99% | 1016.3 hPa | 0 mm | - | 78 W/m² | - |
| 1777205862 | 13.89° C | 99% | 1016.3 hPa | 0 mm | - | 65 W/m² | - |
| 1777205558 | 13.33° C | 99% | 1016.5 hPa | 0 mm | - | 43 W/m² | - |
| 1777205254 | 12.78° C | 99% | 1016.2 hPa | 0 mm | - | 32 W/m² | - |
| 1777204951 | 12.78° C | 99% | 1016.1 hPa | 0 mm | - | 29 W/m² | - |
| 1777204646 | 12.78° C | 99% | 1015.7 hPa | 0 mm | - | 26 W/m² | - |
| 1777204341 | 12.78° C | 99% | 1015.7 hPa | 0 mm | - | 23 W/m² | - |
| 1777204039 | 12.78° C | 99% | 1015.6 hPa | 0 mm | - | 21 W/m² | - |
| 1777203738 | 12.78° C | 99% | 1015.6 hPa | 0 mm | - | 17 W/m² | - |
| 1777203434 | 12.78° C | 99% | 1015.6 hPa | 0 mm | - | 14 W/m² | - |
| 1777203129 | 12.78° C | 99% | 1015.6 hPa | 0 mm | - | 10 W/m² | - |
| 1777202826 | 12.78° C | 99% | 1015.4 hPa | 0 mm | - | 7 W/m² | - |
| 1777202525 | 12.78° C | 99% | 1015.4 hPa | 0 mm | - | 4 W/m² | - |
| 1777202220 | 12.78° C | 99% | 1015.5 hPa | 0 mm | - | 3 W/m² | - |
| 1777201916 | 12.78° C | 99% | 1015.5 hPa | 0 mm | - | 1 W/m² | - |
| 1777201613 | 13.33° C | 99% | 1015.6 hPa | 0 mm | - | 0 W/m² | - |
* Rain latest hour (hover to see other rain measurements)
** Current wind speed in m/s (hover to see current wind gust speed)